Tracking 27112 objects as of 26-Mar-2023
HD Live streaming from Space Station
objects crossing your sky now

STARLINK-2002

Track STARLINK-2002 now!
10-day predictions
STARLINK-2002 is classified as:


NORAD ID: 47597
Int'l Code: 2021-009BB
Perigee: 553.4 km
Apogee: 555.3 km
Inclination: 53.1 °
Period: 95.6 minutes
Semi major axis: 6925 km
RCS: Unknown
Launch date: February 4, 2021
Source: United States (US)
Launch site: AIR FORCE EASTERN TEST RANGE (AFETR)
Your satellite tracking list
Your tracking list is empty




NASA's NSSDC Master Catalog

Two Line Element Set (TLE):
1 47597U 21009BB  23084.89846438  .00054517  00000-0  36502-2 0  9991
2 47597  53.0525 208.9895 0001352  84.0701 276.0442 15.06404879117767
Source of the keplerian elements: AFSPC